| time (UTC) | temp C | wind direction | speed KPH | gust KPH | rain 1hr cm | rain 24hr cm | rain mn cm | humidity % | barometer mb |
| 20260503181523 | 23 | 102 | 8.0 | 12.9 | 0.00 | 0.00 | 0.00 | 54 | 1010.5 |
| 20260503181020 | 23 | 65 | 0.0 | 0.0 | 0.00 | 0.00 | 0.00 | 54 | 1010.5 |
| 20260503180517 | 23 | 113 | 6.4 | 8.0 | 0.00 | 0.00 | 0.00 | 49 | 1010.7 |
| 20260503180014 | 23 | 116 | 4.8 | 4.8 | 0.00 | 0.00 | 0.00 | 59 | 1010.8 |
| 20260503175512 | 23 | 137 | 3.2 | 3.2 | 0.00 | 0.00 | 0.00 | 62 | 1010.2 |
| 20260503175008 | 23 | 141 | 8.0 | 9.7 | 0.00 | 0.00 | 0.00 | 52 | 1010.5 |
| 20260503174506 | 23 | 119 | 8.0 | 12.9 | 0.00 | 0.00 | 0.00 | 51 | 1010.6 |
| 20260503174001 | 23 | 111 | 4.8 | 8.0 | 0.00 | 0.00 | 0.00 | 52 | 1010.7 |
| 20260503173457 | 23 | 75 | 4.8 | 8.0 | 0.00 | 0.00 | 0.00 | 52 | 1010.7 |
| 20260503172954 | 23 | 89 | 8.0 | 9.7 | 0.00 | 0.00 | 0.00 | 52 | 1010.7 |
| 20260503172452 | 22 | 98 | 6.4 | 9.7 | 0.00 | 0.00 | 0.00 | 53 | 1010.6 |
| 20260503171948 | 22 | 97 | 8.0 | 9.7 | 0.00 | 0.00 | 0.00 | 53 | 1010.7 |
| 20260503171444 | 22 | 83 | 4.8 | 4.8 | 0.00 | 0.00 | 0.00 | 53 | 1010.4 |
| 20260503170942 | 23 | 127 | 3.2 | 3.2 | 0.00 | 0.00 | 0.00 | 59 | 1010.6 |
| 20260503170438 | 22 | 89 | 1.6 | 3.2 | 0.00 | 0.00 | 0.00 | 53 | 1010.6 |
| 20260503150831 | 19 | 2 | 1.6 | 1.6 | 0.00 | 0.00 | 0.00 | 74 | 1010.8 |
| 20260503150327 | 20 | 2 | 1.6 | 1.6 | 0.00 | 0.00 | 0.00 | 75 | 1010.8 |
| 20260503140251 | 16 | 2 | 0.0 | 0.0 | 0.00 | 0.00 | 0.00 | 82 | 1010.6 |
| 20260503131221 | 13 | 2 | 0.0 | 0.0 | 0.00 | 0.00 | 0.00 | 87 | 1010.7 |
| 20260503130718 | 13 | 3 | 0.0 | 0.0 | 0.00 | 0.00 | 0.00 | 87 | 1010.4 |
| 20260503130215 | 13 | 3 | 0.0 | 1.6 | 0.00 | 0.00 | 0.00 | 86 | 1010.5 |
| 20260503120141 | 13 | 3 | 1.6 | 1.6 | 0.00 | 0.00 | 0.00 | 87 | 1010.8 |
| 20260503110609 | 15 | 3 | 1.6 | 1.6 | 0.00 | 0.00 | 0.00 | 83 | 1010.8 |
| 20260503110106 | 15 | 3 | 1.6 | 1.6 | 0.00 | 0.00 | 0.00 | 81 | 1010.7 |
| 20260503090455 | 15 | 46 | 1.6 | 1.6 | 0.00 | 0.00 | 0.00 | 84 | 1011.2 |
| 20260503081422 | 14 | 48 | 1.6 | 1.6 | 0.00 | 0.00 | 0.00 | 87 | 1011.4 |
| 20260503080919 | 13 | 48 | 1.6 | 1.6 | 0.00 | 0.00 | 0.00 | 88 | 1011.3 |
| 20260503080415 | 13 | 48 | 0.0 | 0.0 | 0.00 | 0.00 | 0.00 | 87 | 1011.2 |
| 20260503072852 | 13 | 63 | 0.0 | 0.0 | 0.00 | 0.00 | 0.00 | 88 | 1011.7 |
| 20260503072349 | 14 | 63 | 0.0 | 0.0 | 0.00 | 0.00 | 0.00 | 87 | 1011.5 |
| 20260503071845 | 13 | 64 | 0.0 | 0.0 | 0.00 | 0.00 | 0.00 | 89 | 1011.5 |
| 20260503071343 | 13 | 65 | 0.0 | 0.0 | 0.00 | 0.00 | 0.00 | 89 | 1011.7 |
| 20260503070839 | 13 | 65 | 0.0 | 0.0 | 0.00 | 0.00 | 0.00 | 90 | 1011.5 |
| 20260503070337 | 13 | 64 | 0.0 | 0.0 | 0.00 | 0.00 | 0.00 | 90 | 1011.8 |
| 20260503060308 | 14 | 57 | 1.6 | 1.6 | 0.00 | 0.00 | 0.00 | 88 | 1011.5 |
| 20260503054755 | 14 | 58 | 0.0 | 0.0 | 0.00 | 0.00 | 0.00 | 89 | 1011.6 |
| 20260503054251 | 14 | 58 | 0.0 | 1.6 | 0.00 | 0.00 | 0.00 | 89 | 1011.6 |
| 20260503053750 | 14 | 59 | 1.6 | 1.6 | 0.00 | 0.00 | 0.00 | 88 | 1011.6 |
| 20260503053248 | 14 | 59 | 0.0 | 0.0 | 0.00 | 0.00 | 0.00 | 88 | 1011.7 |
| 20260503052744 | 14 | 59 | 0.0 | 1.6 | 0.00 | 0.00 | 0.00 | 88 | 1011.6 |
| 20260503052241 | 15 | 60 | 0.0 | 0.0 | 0.00 | 0.00 | 0.00 | 87 | 1011.6 |
| 20260503051736 | 15 | 61 | 0.0 | 0.0 | 0.00 | 0.00 | 0.00 | 86 | 1011.5 |
| 20260503051234 | 15 | 61 | 0.0 | 1.6 | 0.00 | 0.00 | 0.00 | 86 | 1011.5 |
| 20260503050730 | 15 | 93 | 0.0 | 0.0 | 0.00 | 0.00 | 0.00 | 85 | 1011.6 |
| 20260503050226 | 15 | 24 | 0.0 | 0.0 | 0.00 | 0.00 | 0.00 | 84 | 1011.4 |
| 20260503045724 | 15 | 24 | 1.6 | 1.6 | 0.00 | 0.00 | 0.00 | 84 | 1011.7 |
| 20260503045222 | 15 | 24 | 0.0 | 0.0 | 0.00 | 0.00 | 0.00 | 84 | 1011.7 |
| 20260503044718 | 15 | 23 | 1.6 | 1.6 | 0.00 | 0.00 | 0.00 | 85 | 1011.7 |
| 20260503044216 | 15 | 30 | 0.0 | 0.0 | 0.00 | 0.00 | 0.00 | 84 | 1011.8 |
| 20260503043712 | 15 | 29 | 0.0 | 0.0 | 0.00 | 0.00 | 0.00 | 83 | 1011.8 |
| 20260503043210 | 15 | 346 | 1.6 | 1.6 | 0.00 | 0.00 | 0.00 | 84 | 1011.6 |
| 20260503042705 | 15 | 20 | 1.6 | 1.6 | 0.00 | 0.00 | 0.00 | 84 | 1011.5 |
| 20260503042202 | 15 | 20 | 1.6 | 1.6 | 0.00 | 0.00 | 0.00 | 82 | 1011.7 |
| 20260503041658 | 16 | 23 | 1.6 | 1.6 | 0.00 | 0.00 | 0.00 | 82 | 1011.4 |
| 20260503041156 | 16 | 23 | 0.0 | 0.0 | 0.00 | 0.00 | 0.00 | 81 | 1011.2 |
| 20260503040653 | 16 | 21 | 1.6 | 1.6 | 0.00 | 0.00 | 0.00 | 81 | 1011.5 |
| 20260503040151 | 16 | 48 | 0.0 | 1.6 | 0.00 | 0.00 | 0.00 | 80 | 1011.4 |
| 20260503035647 | 16 | 45 | 0.0 | 0.0 | 0.00 | 0.00 | 0.00 | 81 | 1011.1 |
| 20260503035145 | 15 | 39 | 1.6 | 1.6 | 0.00 | 0.00 | 0.00 | 82 | 1011.1 |
| 20260503034642 | 15 | 36 | 1.6 | 1.6 | 0.00 | 0.00 | 0.00 | 83 | 1011.1 |
| 20260503034139 | 15 | 64 | 0.0 | 0.0 | 0.00 | 0.00 | 0.00 | 82 | 1010.8 |
| 20260503033636 | 15 | 65 | 0.0 | 0.0 | 0.00 | 0.00 | 0.00 | 82 | 1010.8 |
| 20260503033134 | 15 | 39 | 0.0 | 0.0 | 0.00 | 0.00 | 0.00 | 82 | 1010.6 |
| 20260503032632 | 16 | 37 | 0.0 | 1.6 | 0.00 | 0.00 | 0.00 | 82 | 1010.2 |
| 20260503032131 | 16 | 38 | 0.0 | 0.0 | 0.00 | 0.00 | 0.00 | 81 | 1010.2 |
| 20260503031627 | 16 | 36 | 1.6 | 1.6 | 0.00 | 0.00 | 0.00 | 81 | 1010.2 |
| 20260503031125 | 16 | 36 | 0.0 | 0.0 | 0.00 | 0.00 | 0.00 | 81 | 1010.6 |
| 20260503030621 | 16 | 7 | 1.6 | 1.6 | 0.00 | 0.00 | 0.00 | 82 | 1010.5 |
| 20260503030118 | 16 | 27 | 0.0 | 1.6 | 0.00 | 0.00 | 0.00 | 83 | 1010.5 |
| 20260503025614 | 16 | 358 | 1.6 | 1.6 | 0.00 | 0.00 | 0.00 | 83 | 1010.4 |
| 20260503025113 | 16 | 32 | 0.0 | 1.6 | 0.00 | 0.00 | 0.00 | 83 | 1010.8 |
| 20260503024608 | 16 | 258 | 1.6 | 1.6 | 0.00 | 0.00 | 0.00 | 80 | 1010.9 |
| 20260503024106 | 16 | 353 | 1.6 | 1.6 | 0.00 | 0.00 | 0.00 | 80 | 1010.9 |
| 20260503023602 | 16 | 37 | 0.0 | 0.0 | 0.00 | 0.00 | 0.00 | 82 | 1011.2 |
| 20260503023100 | 16 | 0 | 3.2 | 3.2 | 0.00 | 0.00 | 0.00 | 81 | 1011.3 |
| 20260503022555 | 17 | 59 | 0.0 | 1.6 | 0.00 | 0.00 | 0.00 | 79 | 1011.3 |
| 20260503022050 | 17 | 294 | 3.2 | 3.2 | 0.00 | 0.00 | 0.00 | 79 | 1011.4 |
| 20260503021547 | 17 | 5 | 1.6 | 1.6 | 0.00 | 0.00 | 0.00 | 78 | 1011.4 |
| 20260503021044 | 17 | 98 | 3.2 | 3.2 | 0.00 | 0.00 | 0.00 | 78 | 1012.2 |
| 20260503020541 | 17 | 112 | 3.2 | 4.8 | 0.00 | 0.00 | 0.00 | 77 | 1011.9 |
| 20260503020038 | 17 | 111 | 4.8 | 8.0 | 0.00 | 0.00 | 0.00 | 77 | 1012.1 |
| 20260503015535 | 17 | 99 | 4.8 | 4.8 | 0.00 | 0.00 | 0.00 | 75 | 1012.0 |
| 20260503015032 | 17 | 112 | 11.3 | 16.1 | 0.00 | 0.00 | 0.00 | 75 | 1011.9 |
| 20260503014528 | 18 | 122 | 8.0 | 11.3 | 0.00 | 0.00 | 0.00 | 74 | 1011.7 |
| 20260503014026 | 18 | 103 | 3.2 | 3.2 | 0.00 | 0.00 | 0.00 | 74 | 1011.4 |
| 20260503013523 | 18 | 101 | 4.8 | 4.8 | 0.00 | 0.00 | 0.00 | 72 | 1011.1 |
| 20260503013021 | 18 | 106 | 4.8 | 8.0 | 0.00 | 0.00 | 0.00 | 72 | 1011.5 |
| 20260503012518 | 18 | 97 | 4.8 | 4.8 | 0.00 | 0.00 | 0.00 | 71 | 1011.2 |
| 20260503012014 | 18 | 101 | 4.8 | 4.8 | 0.00 | 0.00 | 0.00 | 71 | 1011.3 |
| 20260503011511 | 18 | 91 | 1.6 | 1.6 | 0.00 | 0.00 | 0.00 | 75 | 1011.2 |
| 20260503011008 | 18 | 99 | 3.2 | 4.8 | 0.00 | 0.00 | 0.00 | 72 | 1011.2 |
| 20260503010504 | 19 | 201 | 4.8 | 4.8 | 0.00 | 0.00 | 0.00 | 69 | 1010.9 |
| 20260503010002 | 19 | 111 | 4.8 | 8.0 | 0.00 | 0.00 | 0.00 | 67 | 1011.1 |
| 20260503005459 | 19 | 125 | 4.8 | 4.8 | 0.00 | 0.00 | 0.00 | 71 | 1011.0 |
| 20260503004956 | 19 | 100 | 3.2 | 4.8 | 0.00 | 0.00 | 0.00 | 70 | 1011.0 |
| 20260503004452 | 19 | 106 | 3.2 | 8.0 | 0.00 | 0.00 | 0.00 | 65 | 1010.9 |
| 20260503003950 | 20 | 93 | 3.2 | 4.8 | 0.00 | 0.00 | 0.00 | 65 | 1010.9 |
| 20260503003447 | 20 | 71 | 3.2 | 4.8 | 0.00 | 0.00 | 0.00 | 63 | 1010.9 |
| 20260503002944 | 20 | 127 | 9.7 | 11.3 | 0.00 | 0.00 | 0.00 | 64 | 1010.8 |
| 20260503002441 | 20 | 110 | 4.8 | 4.8 | 0.00 | 0.00 | 0.00 | 61 | 1010.8 |
| 20260503001937 | 20 | 27 | 4.8 | 8.0 | 0.00 | 0.00 | 0.00 | 61 | 1010.8 |
| 20260503001434 | 20 | 106 | 4.8 | 4.8 | 0.00 | 0.00 | 0.00 | 62 | 1010.6 |
| 20260503000932 | 20 | 136 | 4.8 | 4.8 | 0.00 | 0.00 | 0.00 | 66 | 1010.7 |
| 20260503000430 | 20 | 121 | 1.6 | 1.6 | 0.00 | 0.00 | 0.00 | 69 | 1010.7 |
| 20260502235926 | 20 | 69 | 3.2 | 3.2 | 0.00 | 0.00 | 0.00 | 67 | 1010.7 |
| 20260502235422 | 20 | 83 | 4.8 | 4.8 | 0.00 | 0.00 | 0.00 | 67 | 1010.9 |
| 20260502234920 | 20 | 115 | 11.3 | 12.9 | 0.00 | 0.00 | 0.00 | 66 | 1010.9 |
| 20260502234416 | 20 | 45 | 4.8 | 4.8 | 0.00 | 0.00 | 0.00 | 65 | 1010.7 |
| 20260502233914 | 20 | 77 | 3.2 | 3.2 | 0.00 | 0.00 | 0.00 | 65 | 1010.7 |
| 20260502233409 | 20 | 139 | 3.2 | 3.2 | 0.00 | 0.00 | 0.00 | 70 | 1010.9 |
| 20260502232906 | 20 | 121 | 12.9 | 12.9 | 0.00 | 0.00 | 0.00 | 65 | 1011.0 |
| 20260502232402 | 19 | 58 | 0.0 | 0.0 | 0.00 | 0.00 | 0.00 | 65 | 1010.7 |
| 20260502231859 | 19 | 67 | 4.8 | 8.0 | 0.00 | 0.00 | 0.00 | 65 | 1010.9 |
| 20260502231357 | 19 | 125 | 3.2 | 3.2 | 0.00 | 0.00 | 0.00 | 65 | 1011.2 |
| 20260502230855 | 19 | 116 | 8.0 | 9.7 | 0.00 | 0.00 | 0.00 | 65 | 1011.3 |
| 20260502230353 | 19 | 142 | 8.0 | 9.7 | 0.00 | 0.00 | 0.00 | 68 | 1011.5 |
| 20260502225850 | 20 | 98 | 3.2 | 3.2 | 0.00 | 0.00 | 0.00 | 66 | 1011.3 |
| 20260502225346 | 19 | 84 | 6.4 | 8.0 | 0.00 | 0.00 | 0.00 | 67 | 1011.4 |
| 20260502224843 | 18 | 37 | 4.8 | 4.8 | 0.00 | 0.00 | 0.00 | 69 | 1011.6 |
| 20260502224339 | 18 | 36 | 1.6 | 1.6 | 0.00 | 0.00 | 0.00 | 68 | 1011.4 |
| 20260502223837 | 18 | 111 | 4.8 | 4.8 | 0.00 | 0.00 | 0.00 | 66 | 1011.8 |
| 20260502223335 | 18 | 126 | 8.0 | 11.3 | 0.00 | 0.00 | 0.00 | 67 | 1012.0 |
| 20260502222832 | 18 | 96 | 4.8 | 8.0 | 0.00 | 0.00 | 0.00 | 69 | 1011.9 |
| 20260502222330 | 18 | 79 | 8.0 | 9.7 | 0.00 | 0.00 | 0.00 | 68 | 1012.1 |
| 20260502221825 | 18 | 347 | 3.2 | 3.2 | 0.00 | 0.00 | 0.00 | 67 | 1012.1 |
| 20260502221321 | 18 | 50 | 4.8 | 8.0 | 0.00 | 0.00 | 0.00 | 68 | 1012.2 |
| 20260502220819 | 18 | 118 | 3.2 | 3.2 | 0.00 | 0.00 | 0.00 | 72 | 1012.3 |
| 20260502220314 | 18 | 105 | 3.2 | 3.2 | 0.00 | 0.00 | 0.00 | 68 | 1012.1 |
| 20260502215811 | 18 | 81 | 4.8 | 9.7 | 0.00 | 0.00 | 0.00 | 75 | 1012.3 |
| 20260502215309 | 17 | 89 | 1.6 | 3.2 | 0.00 | 0.00 | 0.00 | 74 | 1012.3 |
| 20260502214806 | 17 | 104 | 8.0 | 12.9 | 0.00 | 0.00 | 0.00 | 72 | 1012.4 |
| 20260502214302 | 17 | 107 | 6.4 | 9.7 | 0.00 | 0.00 | 0.00 | 71 | 1012.7 |
| 20260502213759 | 17 | 108 | 1.6 | 1.6 | 0.00 | 0.00 | 0.00 | 75 | 1012.4 |
| 20260502213257 | 17 | 17 | 4.8 | 8.0 | 0.00 | 0.00 | 0.00 | 70 | 1012.6 |
| 20260502212755 | 17 | 158 | 4.8 | 4.8 | 0.00 | 0.00 | 0.00 | 78 | 1012.5 |
| 20260502212253 | 17 | 116 | 12.9 | 14.5 | 0.00 | 0.00 | 0.00 | 72 | 1012.5 |
| 20260502211749 | 16 | 156 | 8.0 | 11.3 | 0.00 | 0.00 | 0.00 | 72 | 1012.7 |
| 20260502211246 | 16 | 120 | 4.8 | 11.3 | 0.00 | 0.00 | 0.00 | 75 | 1012.6 |
| 20260502210743 | 16 | 105 | 6.4 | 8.0 | 0.00 | 0.00 | 0.00 | 73 | 1013.0 |
| 20260502210241 | 17 | 68 | 4.8 | 4.8 | 0.00 | 0.00 | 0.00 | 71 | 1012.6 |
| 20260502205738 | 17 | 332 | 3.2 | 4.8 | 0.00 | 0.00 | 0.00 | 70 | 1013.0 |
| 20260502205233 | 16 | 181 | 4.8 | 4.8 | 0.00 | 0.00 | 0.00 | 71 | 1013.0 |
| 20260502204731 | 16 | 88 | 3.2 | 3.2 | 0.00 | 0.00 | 0.00 | 71 | 1013.0 |
| 20260502204228 | 16 | 126 | 4.8 | 8.0 | 0.00 | 0.00 | 0.00 | 76 | 1013.0 |
| 20260502203726 | 16 | 105 | 6.4 | 8.0 | 0.00 | 0.00 | 0.00 | 73 | 1013.2 |
| 20260502203224 | 16 | 82 | 4.8 | 4.8 | 0.00 | 0.00 | 0.00 | 73 | 1013.1 |
| 20260502202717 | 15 | 80 | 4.8 | 8.0 | 0.00 | 0.00 | 0.00 | 75 | 1013.2 |
| 20260502202216 | 15 | 61 | 4.8 | 8.0 | 0.00 | 0.00 | 0.00 | 74 | 1013.1 |
| 20260502201713 | 15 | 22 | 1.6 | 1.6 | 0.00 | 0.00 | 0.00 | 73 | 1013.5 |
| 20260502201210 | 15 | 154 | 3.2 | 3.2 | 0.00 | 0.00 | 0.00 | 76 | 1013.3 |
| 20260502200705 | 16 | 126 | 4.8 | 4.8 | 0.00 | 0.00 | 0.00 | 78 | 1013.3 |
| 20260502200202 | 15 | 337 | 1.6 | 1.6 | 0.00 | 0.00 | 0.00 | 79 | 1013.4 |
| 20260502195700 | 15 | 163 | 1.6 | 1.6 | 0.00 | 0.00 | 0.00 | 73 | 1013.6 |
| 20260502195156 | 15 | 196 | 4.8 | 4.8 | 0.00 | 0.00 | 0.00 | 78 | 1013.8 |
| 20260502194653 | 15 | 207 | 4.8 | 4.8 | 0.00 | 0.00 | 0.00 | 77 | 1013.8 |
| 20260502194150 | 13 | 42 | 1.6 | 3.2 | 0.00 | 0.00 | 0.00 | 75 | 1014.2 |
| 20260502193647 | 15 | 102 | 1.6 | 3.2 | 0.00 | 0.00 | 0.00 | 78 | 1014.4 |
| 20260502193144 | 14 | 107 | 1.6 | 3.2 | 0.00 | 0.00 | 0.00 | 79 | 1014.4 |
| 20260502192639 | 13 | 233 | 3.2 | 3.2 | 0.00 | 0.00 | 0.00 | 78 | 1014.4 |
| 20260502192137 | 13 | 91 | 1.6 | 3.2 | 0.00 | 0.00 | 0.00 | 79 | 1014.3 |
| 20260502191633 | 13 | 140 | 4.8 | 4.8 | 0.00 | 0.00 | 0.00 | 79 | 1014.2 |
| 20260502191131 | 12 | 52 | 0.0 | 1.6 | 0.00 | 0.00 | 0.00 | 81 | 1014.4 |
| 20260502190628 | 12 | 87 | 1.6 | 1.6 | 0.00 | 0.00 | 0.00 | 82 | 1014.5 |
| 20260502190126 | 12 | 93 | 1.6 | 1.6 | 0.00 | 0.00 | 0.00 | 82 | 1014.5 |
| 20260502185620 | 12 | 152 | 3.2 | 3.2 | 0.00 | 0.00 | 0.00 | 84 | 1014.5 |
| 20260502185117 | 12 | 99 | 3.2 | 3.2 | 0.00 | 0.00 | 0.00 | 81 | 1014.3 |
| 20260502184613 | 12 | 163 | 3.2 | 3.2 | 0.00 | 0.00 | 0.00 | 82 | 1014.6 |
| 20260502184109 | 11 | 91 | 3.2 | 3.2 | 0.00 | 0.00 | 0.00 | 84 | 1014.4 |
| 20260502183605 | 12 | 180 | 3.2 | 3.2 | 0.00 | 0.00 | 0.00 | 83 | 1014.5 |
| 20260502183102 | 11 | 78 | 1.6 | 1.6 | 0.00 | 0.00 | 0.00 | 84 | 1014.5 |
| 20260502182557 | 11 | 91 | 1.6 | 1.6 | 0.00 | 0.00 | 0.00 | 86 | 1014.6 |
| 20260502182053 | 11 | 341 | 1.6 | 1.6 | 0.00 | 0.00 | 0.00 | 85 | 1014.7 |